GW4658 Weather Reports


time (UTC)temp
C
wind
direction
speed
KPH
gust
KPH
rain 1hr
cm
rain 24hr
cm
rain mn
cm
humidity
%
barometer
mb
20260504190037 25 249 32.2 49.9 0.00 0.00 0.00 32 1002.1
20260504184602 26 258 37.0 56.3 0.00 0.00 0.00 32 1002.1
20260504183100 25 282 35.4 51.5 0.00 0.00 0.00 33 1002.5
20260504181510 26 265 24.1 38.6 0.00 0.00 0.00 34 1002.5
20260504180013 25 260 33.8 59.5 0.00 0.00 0.00 33 1002.4
20260504174525 25 321 27.4 49.9 0.00 0.00 0.00 35 1002.5
20260504173030 25 251 32.2 49.9 0.00 0.00 0.00 34 1002.8
20260504171546 25 203 29.0 48.3 0.00 0.00 0.00 35 1002.7
20260504081539 8 359 3.2 6.4 0.00 0.00 0.00 66 1007.7
20260504044554 11 359 1.6 6.4 0.00 0.00 0.00 59 1010.0
20260504043004 11 359 3.2 4.8 0.00 0.00 0.00 57 1010.1
20260504041513 12 359 4.8 6.4 0.00 0.00 0.00 55 1010.2
20260504040030 13 359 6.4 9.7 0.00 0.00 0.00 52 1010.5
20260504034541 13 359 12.9 14.5 0.00 0.00 0.00 51 1010.4
20260504033052 13 359 11.3 12.9 0.00 0.00 0.00 50 1010.6
20260504031558 14 359 11.3 12.9 0.00 0.00 0.00 49 1010.5
20260504031504 14 359 11.3 12.9 0.00 0.00 0.00 49 1010.5
20260504030023 13 359 9.7 12.9 0.00 0.00 0.00 50 1010.7
20260504024527 13 359 4.8 8.0 0.00 0.00 0.00 54 1010.4
20260504023037 14 359 4.8 12.9 0.00 0.00 0.00 51 1010.3
20260504021554 16 359 8.0 12.9 0.00 0.00 0.00 45 1010.2
20260504020059 17 275 11.3 19.3 0.00 0.00 0.00 41 1010.1
20260504014512 17 266 12.9 17.7 0.00 0.00 0.00 41 1010.0
20260504013019 17 277 9.7 16.1 0.00 0.00 0.00 39 1009.9
20260504011531 18 278 11.3 14.5 0.00 0.00 0.00 39 1009.7
20260504010041 19 274 11.3 17.7 0.00 0.00 0.00 36 1009.6
20260504004553 20 270 12.9 20.9 0.00 0.00 0.00 34 1009.5
20260504003101 21 280 14.5 22.5 0.00 0.00 0.00 31 1009.6
20260504001513 21 275 19.3 27.4 0.00 0.00 0.00 30 1009.5
20260504000020 22 294 14.5 25.7 0.00 0.00 0.00 30 1009.5
20260503234543 22 293 12.9 25.7 0.00 0.00 0.00 28 1009.3
20260503233037 22 276 16.1 29.0 0.00 0.00 0.00 28 1009.3
20260503231549 22 281 24.1 40.2 0.00 0.00 0.00 27 1009.2
20260503230059 22 293 17.7 37.0 0.00 0.00 0.00 28 1009.3
20260503224512 23 293 22.5 33.8 0.00 0.00 0.00 27 1009.0
20260503223015 23 316 17.7 27.4 0.00 0.00 0.00 31 1009.1
20260503221529 23 285 25.7 41.8 0.00 0.00 0.00 30 1009.0
20260503220046 23 285 19.3 32.2 0.00 0.00 0.00 32 1009.0
20260503214549 23 286 19.3 40.2 0.00 0.00 0.00 30 1009.0
20260503213108 23 280 25.7 40.2 0.00 0.00 0.00 30 1008.9
20260503211511 23 313 22.5 33.8 0.00 0.00 0.00 33 1009.0
20260503210021 23 287 22.5 37.0 0.00 0.00 0.00 34 1009.0
20260503204537 23 258 20.9 40.2 0.00 0.00 0.00 34 1009.0
20260503203051 23 297 22.5 37.0 0.00 0.00 0.00 32 1009.2
20260503201557 23 275 25.7 38.6 0.00 0.00 0.00 33 1009.2
20260503200009 23 270 32.2 49.9 0.00 0.00 0.00 36 1009.3
20260503194514 22 310 19.3 38.6 0.00 0.00 0.00 36 1009.6
20260503193035 22 279 22.5 46.7 0.00 0.00 0.00 38 1009.7
20260503191537 21 275 16.1 32.2 0.00 0.00 0.00 39 1009.8